Location: Unspecified
(0.0000°N, 0.0000°E)
Time: 09:15:54

SRMSAT - Pass Details

Date: 12 December 2017
Orbit: 849 x 866 km, 20.0° (Epoch: 20 March)

Event Time Altitude Azimuth Distance (km) Brightness Sun altitude
Exits shadow 04:13:09 51° 282° (WNW) 1,070 ? -23.0°
Maximum altitude 04:14:32 67° 339° (NNW) 927 ? -22.7°
Drops below altitude 10° 04:20:29 10° 61° (ENE) 2,488 ? -21.3°
Sets 04:23:05 0° 64° (ENE) 3,425 ? -20.7°
